GW5176 Weather Reports


Display with metric or nautical units.
time (UTC)temp
F
wind
direction
speed
MPH
gust
MPH
rain 1hr
in
rain 24hr
in
rain mn
in
humidity
%
barometer
mb
20260502130249 68 242 0.0 0.0 0.00 0.00 0.00 32 1011.5
20260502123735 66 243 0.0 1.0 0.00 0.00 0.00 34 1011.3
20260502123232 66 242 0.0 0.0 0.00 0.00 0.00 35 1011.2
20260502122728 66 241 0.0 0.0 0.00 0.00 0.00 33 1011.2
20260502122224 65 241 0.0 0.0 0.00 0.00 0.00 34 1010.9
20260502121723 65 241 0.0 0.0 0.00 0.00 0.00 34 1011.0
20260502121220 65 243 0.0 1.0 0.00 0.00 0.00 35 1011.1
20260502120716 65 242 0.0 0.0 0.00 0.00 0.00 37 1010.9
20260502120213 65 242 0.0 0.0 0.00 0.00 0.00 38 1010.9
20260502115711 65 241 0.0 0.0 0.00 0.00 0.00 36 1011.0
20260502115208 65 242 0.0 0.0 0.00 0.00 0.00 35 1011.0
20260502114704 66 240 0.0 0.0 0.00 0.00 0.00 34 1010.9
20260502114201 66 242 0.0 0.0 0.00 0.00 0.00 33 1010.6
20260502113658 66 242 0.0 0.0 0.00 0.00 0.00 34 1010.6
20260502113156 66 243 0.0 0.0 0.00 0.00 0.00 34 1010.6
20260502112654 66 241 0.0 0.0 0.00 0.00 0.00 34 1010.5
20260502112151 67 240 0.0 0.0 0.00 0.00 0.00 33 1010.6
20260502111648 67 238 0.0 1.0 0.00 0.00 0.00 32 1010.6
20260502111146 67 242 0.0 0.0 0.00 0.00 0.00 33 1010.8
20260502110644 68 241 1.0 1.0 0.00 0.00 0.00 31 1010.8
20260502110140 68 213 1.0 2.0 0.00 0.00 0.00 29 1010.5
20260502105638 68 242 0.0 0.0 0.00 0.00 0.00 30 1010.5
20260502105135 68 244 0.0 0.0 0.00 0.00 0.00 29 1010.6
20260502104632 69 242 0.0 0.0 0.00 0.00 0.00 28 1010.5
20260502104129 69 243 0.0 1.0 0.00 0.00 0.00 28 1010.5
20260502103627 70 247 0.0 1.0 0.00 0.00 0.00 29 1010.6
20260502103125 70 251 1.0 1.0 0.00 0.00 0.00 27 1010.5
20260502102621 70 255 1.0 2.0 0.00 0.00 0.00 29 1010.3
20260502102112 70 243 0.0 1.0 0.00 0.00 0.00 28 1010.3
20260502101610 70 245 0.0 1.0 0.00 0.00 0.00 28 1010.4
20260502101108 70 249 0.0 3.0 0.00 0.00 0.00 29 1010.4
20260502100607 71 244 0.0 0.0 0.00 0.00 0.00 29 1010.2
20260502100105 71 242 0.0 0.0 0.00 0.00 0.00 27 1010.2
20260502091038 71 239 0.0 1.0 0.00 0.00 0.00 29 1010.1
20260502090535 71 243 0.0 0.0 0.00 0.00 0.00 31 1010.0
20260502071429 79 243 0.0 0.0 0.00 0.00 0.00 20 1009.3
20260502070927 80 245 0.0 0.0 0.00 0.00 0.00 19 1009.4
20260502070425 80 253 0.0 1.0 0.00 0.00 0.00 19 1009.2
20260502065923 80 251 1.0 2.0 0.00 0.00 0.00 19 1009.2
20260502065422 80 246 0.0 1.0 0.00 0.00 0.00 19 1009.1
20260502064919 80 242 1.0 1.0 0.00 0.00 0.00 18 1009.2
20260502064417 81 245 0.0 1.0 0.00 0.00 0.00 19 1009.2
20260502063914 81 254 0.0 2.0 0.00 0.00 0.00 18 1009.2
20260502063411 81 253 1.0 2.0 0.00 0.00 0.00 18 1009.0
20260502062909 82 244 1.0 1.0 0.00 0.00 0.00 18 1009.1
20260502062406 81 244 2.0 3.0 0.00 0.00 0.00 18 1009.1
20260502061905 80 247 1.0 3.0 0.00 0.00 0.00 18 1009.0
20260502061402 80 245 1.0 1.0 0.00 0.00 0.00 18 1009.1
20260502060858 81 245 0.0 2.0 0.00 0.00 0.00 18 1009.0
20260502060353 81 245 0.0 0.0 0.00 0.00 0.00 17 1008.9
20260502055851 81 249 0.0 2.0 0.00 0.00 0.00 18 1009.2
20260502055348 82 241 0.0 3.0 0.00 0.00 0.00 17 1008.9
20260502054848 82 243 1.0 3.0 0.00 0.00 0.00 17 1008.8
20260502054345 80 265 2.0 3.0 0.00 0.00 0.00 18 1008.9
20260502053842 79 244 0.0 1.0 0.00 0.00 0.00 18 1008.8
20260502053340 79 244 0.0 1.0 0.00 0.00 0.00 19 1008.8
20260502052837 78 247 0.0 1.0 0.00 0.00 0.00 19 1009.0
20260502052335 76 241 0.0 0.0 0.00 0.00 0.00 20 1008.9
20260502051833 76 243 0.0 0.0 0.00 0.00 0.00 23 1008.7
20260502051331 76 243 0.0 0.0 0.00 0.00 0.00 24 1008.6
20260502050827 76 243 0.0 0.0 0.00 0.00 0.00 24 1008.7
20260502050324 77 242 0.0 0.0 0.00 0.00 0.00 23 1008.7
20260502045821 77 244 0.0 0.0 0.00 0.00 0.00 23 1008.5
20260502045317 78 241 0.0 0.0 0.00 0.00 0.00 22 1008.8
20260502044815 79 243 0.0 0.0 0.00 0.00 0.00 21 1008.7
20260502044311 80 243 0.0 0.0 0.00 0.00 0.00 19 1008.7
20260502043808 80 243 0.0 0.0 0.00 0.00 0.00 19 1008.6
20260502043306 80 244 0.0 0.0 0.00 0.00 0.00 18 1008.6
20260502042805 80 242 0.0 0.0 0.00 0.00 0.00 18 1008.7
20260502042305 80 243 0.0 0.0 0.00 0.00 0.00 19 1008.7
20260502041800 80 244 0.0 0.0 0.00 0.00 0.00 21 1008.6
20260502041257 80 242 0.0 0.0 0.00 0.00 0.00 18 1008.5
20260502040754 80 243 0.0 0.0 0.00 0.00 0.00 18 1008.4
20260502040250 81 243 0.0 0.0 0.00 0.00 0.00 18 1008.4
20260502035747 81 244 0.0 0.0 0.00 0.00 0.00 18 1008.4
20260502035244 82 243 0.0 0.0 0.00 0.00 0.00 17 1008.1
20260502034741 82 246 0.0 0.0 0.00 0.00 0.00 18 1008.3
20260502034239 82 246 0.0 0.0 0.00 0.00 0.00 17 1008.3
20260502033737 83 247 0.0 0.0 0.00 0.00 0.00 17 1008.3
20260502033235 83 253 2.0 2.0 0.00 0.00 0.00 17 1008.1
20260502032731 83 266 1.0 2.0 0.00 0.00 0.00 17 1008.0
20260502032227 83 245 0.0 1.0 0.00 0.00 0.00 17 1007.9
20260502031726 84 246 1.0 1.0 0.00 0.00 0.00 17 1008.0
20260502031223 84 251 1.0 2.0 0.00 0.00 0.00 17 1007.8
20260502030722 84 247 1.0 2.0 0.00 0.00 0.00 17 1007.9
20260502030219 84 249 0.0 1.0 0.00 0.00 0.00 17 1007.8
20260502025716 84 244 0.0 0.0 0.00 0.00 0.00 17 1007.4
20260502025214 85 246 1.0 1.0 0.00 0.00 0.00 17 1007.7
20260502024712 85 246 1.0 1.0 0.00 0.00 0.00 17 1007.4
20260502024209 85 262 1.0 1.0 0.00 0.00 0.00 17 1007.4
20260502023707 86 257 2.0 2.0 0.00 0.00 0.00 16 1007.4
20260502023204 86 255 1.0 2.0 0.00 0.00 0.00 17 1007.4
20260502022701 86 260 2.0 3.0 0.00 0.00 0.00 17 1007.1
20260502022158 86 257 1.0 2.0 0.00 0.00 0.00 17 1007.3
20260502021655 87 246 2.0 3.0 0.00 0.00 0.00 17 1007.3
20260502021153 87 278 2.0 3.0 0.00 0.00 0.00 16 1007.1
20260502020649 87 254 2.0 2.0 0.00 0.00 0.00 16 1007.1
20260502020146 87 243 1.0 3.0 0.00 0.00 0.00 16 1007.2
20260502015644 88 264 2.0 3.0 0.00 0.00 0.00 16 1007.1
20260502015140 88 254 2.0 3.0 0.00 0.00 0.00 17 1007.0
20260502014638 88 256 2.0 3.0 0.00 0.00 0.00 16 1007.1
20260502014135 89 245 1.0 2.0 0.00 0.00 0.00 16 1007.2
20260502013631 89 262 2.0 3.0 0.00 0.00 0.00 17 1007.3
20260502013126 89 246 0.0 2.0 0.00 0.00 0.00 17 1007.0
20260502012624 90 283 2.0 4.0 0.00 0.00 0.00 17 1007.0
20260502012122 90 271 2.0 3.0 0.00 0.00 0.00 17 1007.2
20260502011618 90 248 2.0 3.0 0.00 0.00 0.00 17 1007.0
20260502011114 90 162 2.0 3.0 0.00 0.00 0.00 16 1007.1
20260502010612 90 254 2.0 4.0 0.00 0.00 0.00 17 1007.2
20260502010108 91 248 0.0 3.0 0.00 0.00 0.00 18 1007.4
20260502005606 91 245 2.0 4.0 0.00 0.00 0.00 16 1007.1
20260502005103 91 302 2.0 4.0 0.00 0.00 0.00 17 1007.2
20260502004559 91 252 2.0 4.0 0.00 0.00 0.00 16 1007.3
20260502004056 91 7 4.0 6.0 0.00 0.00 0.00 16 1007.2
20260502003555 91 238 4.0 6.0 0.00 0.00 0.00 17 1007.2
20260502003051 91 256 1.0 6.0 0.00 0.00 0.00 17 1007.2
20260502002547 91 253 2.0 7.0 0.00 0.00 0.00 17 1007.3
20260502002045 92 259 4.0 7.0 0.00 0.00 0.00 16 1007.3
20260502001543 91 269 3.0 4.0 0.00 0.00 0.00 17 1007.4
20260502001039 91 33 4.0 6.0 0.00 0.00 0.00 17 1007.1
20260502000538 92 246 2.0 6.0 0.00 0.00 0.00 17 1007.2
20260502000034 91 335 4.0 6.0 0.00 0.00 0.00 17 1007.2
20260501235530 91 286 3.0 3.0 0.00 0.00 0.00 17 1007.3
20260501235026 91 244 2.0 7.0 0.00 0.00 0.00 18 1007.1
20260501234522 90 225 3.0 7.0 0.00 0.00 0.00 17 1007.1
20260501234020 91 232 2.0 4.0 0.00 0.00 0.00 18 1007.2
20260501233518 91 259 2.0 4.0 0.00 0.00 0.00 19 1007.2
20260501233015 91 251 3.0 4.0 0.00 0.00 0.00 19 1007.3
20260501232511 91 219 3.0 6.0 0.00 0.00 0.00 19 1007.6
20260501232008 92 67 4.0 9.0 0.00 0.00 0.00 18 1007.4
20260501231506 91 289 5.0 8.0 0.00 0.00 0.00 18 1007.6
20260501231004 91 220 2.0 6.0 0.00 0.00 0.00 19 1007.6
20260501230503 91 246 1.0 8.0 0.00 0.00 0.00 19 1007.7
20260501230000 91 267 2.0 4.0 0.00 0.00 0.00 20 1007.7
20260501225458 91 250 4.0 8.0 0.00 0.00 0.00 19 1007.6
20260501224953 91 254 4.0 11.0 0.00 0.00 0.00 18 1007.7
20260501224451 90 296 3.0 8.0 0.00 0.00 0.00 21 1007.8
20260501223948 91 251 5.0 8.0 0.00 0.00 0.00 20 1007.9
20260501223444 91 264 3.0 8.0 0.00 0.00 0.00 20 1007.9
20260501222939 91 287 3.0 6.0 0.00 0.00 0.00 20 1007.9
20260501222437 90 256 2.0 7.0 0.00 0.00 0.00 21 1007.9
20260501221933 90 268 4.0 6.0 0.00 0.00 0.00 21 1008.2
20260501221430 91 276 7.0 9.0 0.00 0.00 0.00 19 1008.1
20260501220928 91 263 5.0 7.0 0.00 0.00 0.00 20 1008.1
20260501220426 91 246 3.0 7.0 0.00 0.00 0.00 20 1008.2
20260501215921 91 281 9.0 10.0 0.00 0.00 0.00 19 1008.4
20260501215418 91 253 2.0 2.0 0.00 0.00 0.00 20 1008.3
20260501214914 91 274 3.0 6.0 0.00 0.00 0.00 20 1008.5
20260501214409 90 190 4.0 6.0 0.00 0.00 0.00 20 1008.4
20260501213905 90 215 3.0 6.0 0.00 0.00 0.00 20 1008.6
20260501213402 89 249 0.0 3.0 0.00 0.00 0.00 22 1008.6
20260501212857 90 243 2.0 4.0 0.00 0.00 0.00 21 1008.8
20260501212355 90 241 4.0 6.0 0.00 0.00 0.00 20 1009.0
20260501211851 90 249 2.0 2.0 0.00 0.00 0.00 21 1008.8
20260501211349 88 247 0.0 1.0 0.00 0.00 0.00 24 1008.7
20260501210846 89 221 2.0 2.0 0.00 0.00 0.00 21 1009.1
20260501210343 89 247 2.0 4.0 0.00 0.00 0.00 22 1009.1
20260501205839 88 211 2.0 6.0 0.00 0.00 0.00 22 1009.3
20260501205336 88 228 3.0 11.0 0.00 0.00 0.00 22 1009.2
20260501204833 89 266 4.0 6.0 0.00 0.00 0.00 21 1009.3
20260501204329 89 312 3.0 6.0 0.00 0.00 0.00 22 1009.5
20260501203826 88 251 1.0 4.0 0.00 0.00 0.00 23 1009.4
20260501203323 89 259 4.0 7.0 0.00 0.00 0.00 21 1009.5
20260501202820 88 353 3.0 4.0 0.00 0.00 0.00 22 1009.4
20260501202316 88 234 1.0 4.0 0.00 0.00 0.00 22 1009.5
20260501201814 88 235 2.0 4.0 0.00 0.00 0.00 23 1009.7
20260501201310 88 233 2.0 3.0 0.00 0.00 0.00 23 1009.6
20260501200806 87 258 3.0 3.0 0.00 0.00 0.00 23 1009.6
20260501200303 85 289 4.0 4.0 0.00 0.00 0.00 23 1009.7
20260501195802 85 256 3.0 3.0 0.00 0.00 0.00 23 1009.8
20260501195257 86 284 3.0 7.0 0.00 0.00 0.00 23 1009.9
20260501194753 86 252 0.0 3.0 0.00 0.00 0.00 22 1009.9
20260501194249 86 249 3.0 6.0 0.00 0.00 0.00 25 1009.9
20260501193746 86 252 4.0 6.0 0.00 0.00 0.00 24 1009.8
20260501193244 86 234 2.0 4.0 0.00 0.00 0.00 24 1010.0
20260501192741 86 260 1.0 6.0 0.00 0.00 0.00 23 1010.1
20260501192238 86 244 1.0 2.0 0.00 0.00 0.00 24 1010.3
20260501191735 86 243 0.0 3.0 0.00 0.00 0.00 25 1010.3
20260501191233 85 242 2.0 6.0 0.00 0.00 0.00 25 1010.4
20260501190729 85 159 2.0 4.0 0.00 0.00 0.00 24 1010.3
20260501190225 84 187 3.0 4.0 0.00 0.00 0.00 24 1010.5
20260501185721 84 229 3.0 4.0 0.00 0.00 0.00 25 1010.5
20260501185217 84 200 1.0 4.0 0.00 0.00 0.00 25 1010.8
20260501184713 85 209 2.0 6.0 0.00 0.00 0.00 25 1010.9
20260501184208 85 327 3.0 4.0 0.00 0.00 0.00 25 1010.9
20260501183704 84 234 0.0 3.0 0.00 0.00 0.00 26 1011.0
20260501183201 84 216 1.0 6.0 0.00 0.00 0.00 25 1011.0
20260501182658 83 223 3.0 3.0 0.00 0.00 0.00 26 1011.1
20260501182154 83 65 3.0 6.0 0.00 0.00 0.00 26 1011.2
20260501181652 83 108 3.0 4.0 0.00 0.00 0.00 26 1011.4
20260501181149 82 203 3.0 4.0 0.00 0.00 0.00 25 1011.3
20260501180647 82 258 2.0 4.0 0.00 0.00 0.00 26 1011.6
20260501180143 82 244 0.0 2.0 0.00 0.00 0.00 27 1011.5
20260501175639 82 204 2.0 4.0 0.00 0.00 0.00 27 1011.5
20260501175137 82 239 0.0 2.0 0.00 0.00 0.00 27 1011.7
20260501174634 82 234 1.0 3.0 0.00 0.00 0.00 27 1011.5
20260501174131 82 273 1.0 2.0 0.00 0.00 0.00 28 1011.6
20260501173628 81 243 2.0 3.0 0.00 0.00 0.00 28 1011.8
20260501173125 81 245 1.0 2.0 0.00 0.00 0.00 28 1011.7
20260501172616 81 205 3.0 4.0 0.00 0.00 0.00 28 1011.7
20260501172116 81 109 4.0 4.0 0.00 0.00 0.00 29 1011.8
20260501171612 81 256 1.0 3.0 0.00 0.00 0.00 28 1011.8
20260501171109 81 234 1.0 4.0 0.00 0.00 0.00 29 1011.8
20260501170606 81 236 2.0 3.0 0.00 0.00 0.00 29 1011.8
20260501165600 79 244 0.0 1.0 0.00 0.00 0.00 31 1011.9
20260501165058 79 314 3.0 4.0 0.00 0.00 0.00 31 1011.8
20260501164555 78 257 2.0 3.0 0.00 0.00 0.00 31 1011.8
20260501164052 78 254 2.0 3.0 0.00 0.00 0.00 32 1011.8
20260501163549 78 296 3.0 4.0 0.00 0.00 0.00 32 1011.8
20260501163046 78 355 3.0 4.0 0.00 0.00 0.00 32 1011.8
20260501162542 78 239 2.0 4.0 0.00 0.00 0.00 32 1011.7
20260501162039 77 262 1.0 3.0 0.00 0.00 0.00 32 1011.6
20260501161536 77 253 2.0 3.0 0.00 0.00 0.00 33 1011.7
20260501161032 77 243 0.0 2.0 0.00 0.00 0.00 32 1011.9
20260501160530 77 234 1.0 3.0 0.00 0.00 0.00 33 1011.8
20260501160027 77 242 0.0 1.0 0.00 0.00 0.00 33 1011.6
20260501155523 77 220 1.0 3.0 0.00 0.00 0.00 33 1011.6
20260501155020 77 272 1.0 3.0 0.00 0.00 0.00 34 1011.6
20260501154518 77 229 3.0 4.0 0.00 0.00 0.00 34 1011.6
20260501154014 76 231 1.0 2.0 0.00 0.00 0.00 35 1011.6
20260501153512 75 243 1.0 2.0 0.00 0.00 0.00 35 1011.4
20260501153008 75 247 1.0 2.0 0.00 0.00 0.00 35 1011.2
20260501152505 75 245 0.0 1.0 0.00 0.00 0.00 35 1011.4
20260501152003 75 242 0.0 1.0 0.00 0.00 0.00 37 1011.4
20260501151459 74 241 1.0 3.0 0.00 0.00 0.00 39 1011.3
20260501150956 74 272 2.0 2.0 0.00 0.00 0.00 36 1011.4
20260501150451 73 247 1.0 2.0 0.00 0.00 0.00 36 1011.2
20260501145948 73 221 2.0 3.0 0.00 0.00 0.00 36 1011.3
20260501145444 74 243 0.0 2.0 0.00 0.00 0.00 37 1011.1
20260501144942 73 238 0.0 0.0 0.00 0.00 0.00 36 1011.1
20260501144437 73 243 0.0 1.0 0.00 0.00 0.00 37 1011.2